VU3OPX-13 Weather Reports


time (UTC)temp
C
wind
direction
speed
KPH
gust
KPH
rain 1hr
cm
rain 24hr
cm
rain mn
cm
humidity
%
barometer
mb
20260507223600 25 278 6.4 0.0 0.00 0.00 20.98 75 1008.0
20260507220612 25 285 8.0 0.0 0.00 0.00 20.98 71 1007.0
20260507213625 25 285 8.0 0.0 0.00 0.00 20.98 71 1007.0
20260507210637 25 282 8.0 0.0 0.00 0.00 20.98 72 1008.0
20260507203650 25 282 8.0 0.0 0.00 0.00 20.98 72 1008.0
20260507193715 25 284 8.0 0.0 0.00 0.00 20.98 73 1008.0
20260507190728 25 264 6.4 0.0 0.00 0.00 20.98 75 1009.0
20260507183741 25 264 6.4 0.0 0.00 0.00 20.98 75 1009.0
20260507180753 26 265 8.0 0.0 0.00 0.00 20.98 66 1010.0
20260507173805 26 254 8.0 0.0 0.00 0.00 20.98 66 1010.0
20260507170818 26 288 9.7 0.0 0.00 0.00 20.98 69 1011.0
20260507163831 27 223 16.1 0.0 0.00 0.00 20.98 66 1010.0
20260507160843 27 223 16.1 0.0 0.00 0.00 20.98 66 1010.0
20260507150908 27 199 20.9 0.0 0.00 0.00 20.98 66 1010.0
20260507143920 27 199 20.9 0.0 0.00 0.00 20.98 66 1010.0
20260507133605 28 217 19.3 0.0 0.00 0.00 20.98 60 1008.0
20260507130618 29 261 19.3 0.0 0.00 0.00 20.98 55 1007.0
20260507123631 30 261 19.3 0.0 0.00 0.00 20.98 49 1006.0
20260507113655 32 260 29.0 0.0 0.03 0.00 20.98 42 1005.0
20260507110708 33 257 30.6 0.0 0.03 0.00 20.98 39 1005.0
20260507103721 33 257 30.6 0.0 0.00 0.00 20.98 39 1005.0
20260507100734 35 245 19.3 0.0 0.00 0.00 20.98 29 1005.0
20260507093746 35 245 19.3 0.0 0.00 0.00 20.98 29 1005.0
20260507090758 37 92 6.4 0.0 0.00 0.00 20.98 18 1005.0
20260507083811 37 92 6.4 0.0 0.00 0.00 20.98 18 1005.0
20260507080824 38 66 12.9 0.0 0.00 0.00 20.98 16 1006.0
20260507071319 37 54 12.9 0.0 0.00 0.00 20.98 17 1007.0
20260507064331 38 54 12.9 0.0 0.00 0.00 20.98 17 1007.0
20260507061344 36 48 12.9 0.0 0.00 0.00 20.98 20 1008.0
20260507054357 36 48 12.9 0.0 0.00 0.00 20.98 20 1008.0
20260507051409 35 41 14.5 0.0 0.00 0.00 20.98 24 1008.0
20260507044422 35 41 14.5 0.0 0.00 0.00 20.98 24 1008.0
20260507035549 34 39 14.5 0.0 0.00 0.00 20.98 28 1009.0
20260507032602 31 30 8.0 0.0 0.00 0.00 20.98 36 1009.0
20260507025614 31 30 8.0 0.0 0.00 0.00 20.98 36 1009.0
20260507022626 28 344 4.8 0.0 0.00 0.00 20.98 46 1009.0
20260507015639 28 344 4.8 0.0 0.00 0.00 20.98 46 1009.0
20260507005702 25 293 4.8 0.0 0.00 0.00 20.98 55 1008.0
20260507002715 25 273 4.8 0.0 0.00 0.00 20.98 58 1007.0
20260506235727 25 273 4.8 0.0 0.00 0.00 20.98 58 1007.0
20260506232740 24 154 4.8 0.0 0.00 0.00 20.98 60 1007.0
20260506225753 24 154 4.8 0.0 0.00 0.00 20.98 60 1007.0